TimeEST,TemperatureF,Dew PointF,Humidity,Sea Level PressureIn,VisibilityMPH,Wind Direction,Wind SpeedMPH,Gust SpeedMPH,PrecipitationIn,Events,Conditions,WindDirDegrees,DateUTC
12:54 AM,17.1,7.0,65,30.27,10.0,WSW,5.8,-,N/A,,Clear,240,2014-01-01 05:54:00
1:54 AM,17.1,7.0,65,30.28,10.0,WSW,6.9,-,N/A,,Partly Cloudy,250,2014-01-01 06:54:00
2:54 AM,18.0,7.0,62,30.31,10.0,WSW,5.8,-,N/A,,Clear,240,2014-01-01 07:54:00
3:54 AM,16.0,7.0,68,30.30,10.0,WSW,4.6,-,N/A,,Clear,240,2014-01-01 08:54:00
4:54 AM,15.1,8.1,74,30.32,10.0,West,4.6,-,N/A,,Overcast,260,2014-01-01 09:54:00
5:54 AM,17.1,9.0,71,30.32,10.0,WSW,6.9,-,N/A,,Clear,240,2014-01-01 10:54:00
6:54 AM,16.0,10.0,77,30.34,10.0,WSW,4.6,-,N/A,,Clear,240,2014-01-01 11:54:00
7:54 AM,15.1,10.0,80,30.36,8.0,SSW,8.1,-,N/A,,Partly Cloudy,210,2014-01-01 12:54:00
8:41 AM,17.6,12.2,79,30.33,9.0,SW,5.8,-,N/A,,Mostly Cloudy,220,2014-01-01 13:41:00
8:54 AM,19.0,12.0,74,30.37,9.0,Calm,Calm,-,N/A,,Mostly Cloudy,0,2014-01-01 13:54:00
9:54 AM,19.9,12.9,74,30.38,9.0,SSW,8.1,-,N/A,,Overcast,210,2014-01-01 14:54:00
10:54 AM,23.0,14.0,68,30.39,10.0,WSW,10.4,18.4,N/A,,Overcast,240,2014-01-01 15:54:00
11:54 AM,23.0,15.1,72,30.36,4.0,Calm,Calm,-,0.00,Snow,Light Snow,0,2014-01-01 16:54:00
12:54 PM,24.1,16.0,71,30.33,5.0,Calm,Calm,-,0.00,Snow,Light Snow,0,2014-01-01 17:54:00
1:09 PM,24.8,15.8,69,30.29,1.8,SW,5.8,-,0.00,Snow,Light Snow,220,2014-01-01 18:09:00
1:25 PM,24.8,17.6,74,30.28,2.5,SSW,9.2,-,0.00,Snow,Light Snow,200,2014-01-01 18:25:00
1:52 PM,24.8,17.6,74,30.28,3.0,Variable,5.8,-,0.00,Snow,Light Snow,0,2014-01-01 18:52:00
1:54 PM,24.1,17.1,75,30.32,3.0,Variable,3.5,-,0.00,Snow,Light Snow,0,2014-01-01 18:54:00
2:02 PM,24.8,17.6,74,30.28,2.5,Variable,4.6,-,0.00,Snow,Light Snow,0,2014-01-01 19:02:00
2:09 PM,24.8,17.6,74,30.27,3.0,WNW,5.8,-,0.00,Snow,Light Snow,290,2014-01-01 19:09:00
2:16 PM,24.8,17.6,74,30.27,2.0,Calm,Calm,-,0.00,Snow,Light Snow,0,2014-01-01 19:16:00
2:31 PM,24.8,17.6,74,30.28,5.0,Variable,4.6,-,0.00,Snow,Light Snow,0,2014-01-01 19:31:00
2:49 PM,24.8,17.6,74,30.27,2.0,Calm,Calm,-,0.00,Snow,Light Snow,0,2014-01-01 19:49:00
2:54 PM,24.1,18.0,77,30.32,1.2,Calm,Calm,-,0.00,Snow,Light Snow,0,2014-01-01 19:54:00
3:26 PM,24.8,19.4,80,30.27,2.0,Variable,5.8,-,0.00,Snow,Light Snow,0,2014-01-01 20:26:00
3:45 PM,24.8,19.4,80,30.27,1.8,Variable,4.6,-,0.00,Snow,Light Snow,0,2014-01-01 20:45:00
3:54 PM,24.1,19.0,81,30.31,2.5,Variable,5.8,-,0.00,Snow,Light Snow,0,2014-01-01 20:54:00
4:27 PM,24.8,21.2,86,30.27,1.8,Variable,3.5,-,0.00,Snow,Light Snow,0,2014-01-01 21:27:00
4:41 PM,24.8,21.2,86,30.26,2.0,NE,3.5,-,0.00,Snow,Light Snow,50,2014-01-01 21:41:00
4:54 PM,24.1,21.0,88,30.30,4.0,Variable,3.5,-,0.00,Snow,Light Snow,0,2014-01-01 21:54:00
5:54 PM,24.1,19.9,84,30.30,8.0,Variable,3.5,-,0.00,,Overcast,0,2014-01-01 22:54:00
6:54 PM,24.1,19.9,84,30.30,9.0,NE,4.6,-,N/A,,Mostly Cloudy,50,2014-01-01 23:54:00
7:54 PM,24.1,19.9,84,30.30,9.0,Calm,Calm,-,N/A,,Overcast,0,2014-01-02 00:54:00
8:54 PM,24.1,19.0,81,30.27,10.0,NE,3.5,-,N/A,,Overcast,40,2014-01-02 01:54:00
9:54 PM,24.1,18.0,77,30.25,10.0,Variable,6.9,-,N/A,,Partly Cloudy,0,2014-01-02 02:54:00
10:54 PM,24.1,19.0,81,30.24,10.0,Variable,4.6,-,N/A,,Scattered Clouds,0,2014-01-02 03:54:00
11:54 PM,24.1,19.0,81,30.20,10.0,Variable,4.6,-,N/A,,Clear,0,2014-01-02 04:54:00